Location: Ay?beleni
(36.6500°N, 30.3000°E)
Time: 01:43:23
(UTC+00:00)

Spot 2 - Pass Details

Date: 16 October 2021
Orbit: 570 x 772 km, 98.7° (Epoch: 04 December)

Event Time Altitude Azimuth Distance (km) Brightness Sun altitude
Rises 16:30:25 0° 161° (SSE) 2,757 7.2 -14.7°
Reaches altitude 10° 16:32:32 10° 159° (SSE) 1,865 6.3 -15.1°
Maximum altitude 16:36:32 72° 75° (ENE) 610 3.8 -15.9°
Drops below altitude 10° 16:40:38 10° 351° (N) 1,922 6.7 -16.7°
Sets 16:42:51 0° 350° (N) 2,850 7.6 -17.2°
